#timestamp,LO_Frequency,Hit,StdDev 
1573419615.9,286047002.2,N
1573419635.7,286047002.2,N
1573419655.6,286047001.9,N
1573419675.4,286047004.1,Y
1573419695.2,286047002.7,P
1573419715.1,286047000.4,N
1573419716.0,286047000.4,N
1573419735.8,286047002.0,N
1573419755.7,286047004.3,Y
1573419775.5,286047002.3,P
1573419795.3,286046999.9,N
1573419815.2,286047000.7,N
1573419835.9,286046999.2,N
1573419855.7,286046999.5,N
1573419875.6,286046998.7,N
1573419895.4,286046996.5,N
1573419915.3,286046996.8,N
1573419935.1,286046999.2,N
1573419936.0,286046999.2,N
1573419955.8,286046996.7,N
1573419975.7,286046996.9,N
1573419995.5,286046997.5,N
1573420015.3,286046995.3,N
1573420035.2,286046995.7,N
1573420055.0,286046996.4,N
1573420055.9,286046996.4,N
1573420075.8,286046995.4,N
1573420095.6,286046997.8,N
1573420115.4,286046995.6,N
1573420135.3,286046996.8,N
1573420155.1,286046995.0,N
1573420175.8,286046997.9,N
1573420195.7,286046995.1,N
1573420215.5,286046997.4,N
1573420235.4,286046997.2,N
1573420255.2,286046996.7,N
1573420275.0,286046996.6,N
1573420275.9,286046996.6,N
1573420295.8,286046998.3,N
1573420315.6,286047000.9,N
1573420335.4,286046999.0,N
1573420355.3,286046999.0,N
1573420375.1,286046998.3,N
1573420395.9,286046998.3,N
1573420415.7,286046997.4,N
1573420435.5,286046998.0,N
1573420455.4,286046995.4,Y
1573420475.2,286046999.6,P
1573420495.0,286046999.2,N
1573420495.9,286046999.2,N
1573420515.8,286046999.0,N
1573420535.6,286046998.8,N
1573420555.5,286046998.8,N
1573420575.3,286046999.1,N
1573420595.1,286047000.8,N
1573420615.9,286046999.6,N
1573420635.7,286046996.5,Y
1573420655.5,286046998.8,P
1573420675.4,286046998.1,P
1573420695.2,286047001.2,N
1573420715.1,286046999.2,N
1573420716.0,286046999.2,N
1573420735.8,286046999.1,N
1573420755.6,286046999.4,N
1573420775.5,286046999.5,N
1573420795.3,286046997.2,Y
1573420815.1,286046999.6,P
1573420835.9,286046999.5,P
1573420855.7,286046998.3,P
1573420875.6,286046998.9,N
1573420895.4,286046998.2,Y
1573420915.2,286046999.9,P
1573420935.1,286047000.3,N
1573420936.0,286047000.3,N
1573420955.8,286047000.2,N
1573420975.7,286047000.6,N
1573420995.5,286047001.0,N
1573421015.3,286047001.2,N
1573421035.2,286046998.2,Y
1573421055.0,286047000.4,P
1573421055.9,286047000.4,P
1573421075.7,286047001.2,P
1573421095.6,286047000.5,N
1573421115.4,286047000.9,N
1573421135.3,286047002.7,Y
1573421155.1,286047001.4,P
1573421156.0,286047001.4,P
1573421175.8,286047002.2,P
1573421195.7,286047001.6,N
1573421215.5,286047001.8,Y
1573421235.3,286047002.8,P
1573421255.2,286047000.5,N
1573421275.0,286046998.1,N
1573421275.9,286046998.1,N
1573421295.8,286047002.8,N
1573421315.6,286047000.2,N
1573421335.4,286046998.6,N
1573421355.3,286047002.3,N
1573421375.1,286047000.9,N
1573421395.8,286046999.7,N
1573421415.7,286046999.8,N
1573421435.5,286047002.8,N
1573421455.4,286047000.3,N
1573421475.2,286047002.2,N
1573421495.0,286046999.7,N
1573421495.9,286046999.7,N
1573421515.8,286047000.0,N
1573421535.6,286046999.9,N
1573421555.4,286047002.7,N
1573421575.3,286047000.4,N
1573421595.1,286047000.7,N
1573421615.9,286046999.9,N
1573421635.7,286047001.1,N
1573421655.5,286047001.2,N
1573421675.4,286047000.5,N
1573421695.2,286047000.6,N
1573421715.0,286047001.2,N
1573421715.9,286047001.2,N
1573421735.8,286046998.8,N
1573421755.6,286046998.3,N
1573421775.5,286046997.8,N
1573421795.3,286046999.3,N
1573421815.1,286046999.4,N
1573421835.9,286046998.5,N
1573421855.7,286047000.8,N
1573421875.5,286047000.9,N
1573421895.4,286047000.0,N
1573421915.2,286047000.4,N
1573421935.1,286047000.6,N
1573421936.0,286047000.6,N
1573421955.8,286046998.4,N
1573421975.6,286046998.6,N
1573421995.5,286046999.2,N
1573422015.3,286046999.2,N
1573422035.1,286046998.8,N
1573422055.9,286046998.7,N
1573422075.7,286046999.6,N
1573422095.6,286046999.3,N
1573422115.4,286046999.4,N
1573422135.2,286046996.6,Y
1573422155.1,286046997.4,P
1573422156.0,286046997.4,N
1573422205.8,286046997.8,E
1573422215.7,286046996.6,N
1573422235.6,286046997.1,P
1573422255.4,286046999.2,P
1573422275.2,286046999.4,N
1573422295.1,286046996.7,N
1573422296.0,286046996.7,N
1573422315.8,286046996.7,N
1573422335.7,286046995.8,Y
1573422355.5,286046997.5,P
1573422375.3,286046997.8,P
1573422395.2,286046997.4,P
1573422415.0,286046996.7,Y
1573422415.9,286046996.7,P
1573422435.8,286047002.4,P
1573422455.6,286046999.9,N
1573422475.4,286047001.8,N
1573422495.3,286046999.7,N
1573422515.1,286047000.4,N
1573422535.8,286047001.0,N
1573422555.7,286047000.5,N
1573422575.5,286047000.2,N
1573422595.4,286047000.5,N
1573422615.2,286046998.2,N
1573422635.0,286047001.2,N
1573422635.9,286047001.2,N
1573422655.8,286047000.9,N
1573422675.6,286047000.1,N
1573422695.5,286047002.6,N
1573422715.3,286047004.0,N
1573422735.1,286047001.5,N
1573422755.9,286047001.7,N
1573422775.7,286047002.1,N
1573422795.5,286046999.7,N
1573422815.4,286046999.9,N
1573422835.2,286047000.0,N
1573422855.1,286047001.0,N
1573422856.0,286047001.0,N
1573422875.8,286046999.0,N
1573422895.6,286046998.5,N
1573422915.5,286046999.1,N
1573422935.3,286046998.4,N
1573422955.2,286046999.9,N
1573422975.9,286046999.9,N
1573422995.7,286046999.9,N
1573423015.6,286047001.0,N
1573423035.4,286046998.2,N
1573423055.2,286046998.9,N
1573423075.1,286046998.2,N
1573423076.0,286046998.2,N
1573423095.8,286047000.8,N
1573423115.7,286046998.6,N
1573423135.5,286047001.1,N
1573423155.3,286046998.7,N
1573423175.2,286047000.9,N
1573423195.0,286046998.8,N
1573423195.9,286046998.8,N
